User: anonymous   Login
Location: Nandig?ma
(16.7717°N, 80.2860°E)
Time: 19:21:23
(UTC+00:00)
Language:

IRIDIUM 114 - Orbit

View from above orbital plane
View from above orbital plane
View from above satellite
View from above satellite

Ground track
Ground track

The orbit data is extracted from the following two-line orbital elements,

1 41923U 17003G   24287.20655682  .00001167  00000-0  40949-3 0  9991
2 41923  86.4005 344.1898 0002275  98.6555 261.4898 14.34217954405530
Epoch (UTC): 13 October 2024 04:57:26
Eccentricity: 0.0002275
inclination: 86.4005°
perigee height: 776 km
apogee height: 779 km
right ascension of ascending node: 344.1898°
argument of perigee: 98.6555°
revolutions per day: 14.34217954
mean anomaly at epoch: 261.4898°
orbit number at epoch: 40553

The dashed part of the orbit path shows where the satellite is in the earth's shadow,  

DLR